Weather in Patrushi

Russia / Sverdlovsk Oblast     56°41′10″N   60°48′13″E
temp.,
°C
wind,
m/s
gust,
m/s
humid.,
%
clouds,
%
prec.,
mm/h
press.,
hPa
HPBL,
m
25 july, sun
sun2523:00+16w116293 0.0 100711
02:00+13wnw22819 0.0 100831
05:00+12nw269887 0.2 1009190
08:00+12nnw488999 0.1 1011479
11:00+17nnw565662 0.1 10121400
14:00+19nw454039 0.0 10132149
17:00+20nw46315 0.0 10132488
20:00+16nw48456 0.0 1015550
26 july, mon
mon2623:00+11nw3116216 0.0 1017278
02:00+9wnw237399 0.0 101954
05:00+11w2566100 0.0 1019132
08:00+13wnw365893 0.0 1019385
11:00+16wnw474090 0.0 10192242
14:00+17w4736100 0.0 10182521
17:00+17wnw4741100 0.0 10172063
20:00+15wsw256114 0.0 1017179
27 july, tue
tue2723:00+11wsw3118090 0.0 1017316
02:00+13w4117589 0.0 1016479
05:00+11w3118421 0.1 1015322
08:00+16w5126487 0.0 1014789
11:00+13w5118898 0.3 1013822
14:00+15w598334 0.6 1013864
17:00+19wnw475366 0.8 10111731
20:00+16w3766100 0.3 1011264
28 july, wed
wed2823:00+13nnw1173100 0.3 101111
02:00+12wsw1286100 0.1 101060
05:00+11nnw2680100 0.2 1010252
08:00+12nnw48615 0.0 1011901
11:00+16nw574218 0.0 10111798
14:00+19nw573528 0.0 10102234
17:00+19nw583776 0.0 10112627
20:00+15wnw4952100 0.0 1012740
29 july, thu
thu2923:00+13sw2663100 0.0 1011164
02:00+14wsw41357100 0.0 1010583
05:00+14wsw5146095 0.0 1009639
08:00+15wsw51357100 0.0 1009850
11:00+16wsw61265100 0.0 1008765
14:00+16wsw6106141 0.0 10091010
17:00+20w575752 0.0 10071339
20:00+18w11705 0.0 100713